Location: Moondance
(40.1328°N, 106.5113°W)
Time: 08:09:20
(UTC-06:00)

Envisat - Visible Passes

Search period start: 17 October 2018 00:00
Search period end: 27 October 2018 00:00
Orbit: 764 x 766 km, 98.2° (Epoch: 17 October)

Date Brightness Start Highest point End Pass type
(mag) Time Alt. Az. Time Alt. Az. Time Alt. Az.
17 Oct 3.9 19:08:41 10° ESE 19:12:51 27° ENE 19:17:02 10° N visible
17 Oct 4.5 20:47:06 10° SSW 20:51:42 35° W 20:56:20 10° NNW visible
18 Oct 3.0 20:09:48 10° S 20:14:52 80° WSW 20:19:58 10° NNW visible
19 Oct 3.2 19:33:25 10° SE 19:38:13 46° ENE 19:43:03 10° N visible
19 Oct 5.4 21:13:47 10° SW 21:17:27 20° W 21:21:08 10° NW visible
20 Oct 4.2 18:58:00 10° ESE 19:01:46 22° ENE 19:05:33 10° NNE visible
20 Oct 4.0 20:35:39 10° S 20:40:28 44° W 20:45:20 10° NNW visible
21 Oct 2.8 19:58:38 10° SSE 20:03:41 81° ENE 20:08:47 10° N visible
21 Oct 6.0 21:42:08 10° WSW 21:43:17 11° W 21:44:27 10° WNW visible
22 Oct 3.5 19:22:30 10° SE 19:27:06 36° ENE 19:31:43 10° N visible
22 Oct 5.0 21:02:02 10° SSW 21:06:10 25° W 21:10:20 10° NW visible
23 Oct 4.4 18:47:28 10° ESE 18:50:42 17° ENE 18:53:58 10° NNE visible
23 Oct 3.5 20:24:17 10° S 20:29:15 57° W 20:34:16 10° NNW visible
24 Oct 2.9 19:47:32 10° SSE 19:52:32 64° ENE 19:57:33 10° N visible
24 Oct 5.8 21:29:20 10° WSW 21:31:58 14° W 21:34:37 10° WNW visible
25 Oct 3.8 19:11:42 10° SE 19:16:00 29° ENE 19:20:20 10° N visible
25 Oct 4.6 20:50:25 10° SSW 20:54:55 32° W 20:59:26 10° NNW visible
26 Oct 4.6 18:37:10 10° E 18:39:40 14° ENE 18:42:11 10° NNE visible
26 Oct 3.1 20:13:00 10° S 20:18:03 73° WSW 20:23:08 10° NNW visible
